Welcome to the New NWS' Forecast!
Most changes are behind the scenes, but click here for differences you might notice.
Latest weather observations around

Vaiden Fld Airport (KA08)

Using English Units (Switch to International System of Units)
Date/ Time (CST) Wind (mph) Vis. (mi) Weather Sky Cond. Temp (°F) Rel. Humidity Wind Chill (°F) Heat Index (°F) Pressure Precip. (in)
Air Dwpt 6 hour Altimeter (inHg) Sea level (inHg) 1 hr 3 hr 6 hr
Max Min
Jan 23 15:35 WNW 14 10 Clear CLR 55 33     42%     30.11        
Jan 23 15:15 WNW 13 10 Clear CLR 55 33     42%     30.09        
Jan 23 14:55 WNW 13 10 Clear CLR 55 32     42%     30.09        
Jan 23 14:35 W 10 10 Clear CLR 56 33     43%     30.09        
Jan 23 14:15 WNW 14 10 Clear CLR 55 33     43%     30.09        
Jan 23 13:55 W 10 10 Clear CLR 54 33     43%     30.09        
Jan 23 13:35 WNW 10 10 Clear CLR 54 32     44%     30.09        
Jan 23 13:15 WNW 10 10 Clear CLR 55 34     45%     30.09        
Jan 23 12:55 WNW 13 10 Clear CLR 53 33     45%     30.1        
Jan 23 12:35 W 13 10 Clear CLR 52 32     46%     30.11        
Jan 23 12:15 W 15 10 Clear CLR 52 32     46%     30.11        
Jan 23 11:55 W 17 10 Clear CLR 52 32     47%     30.12        
Jan 23 11:35 WNW 11 10 Clear CLR 51 32     48%     30.12        
Jan 23 11:15 WNW 14 10 Clear CLR 51 33     49%     30.13        
Jan 23 10:55 NW 18 10 Clear CLR 51 32     48%     30.13        
Jan 23 10:35 WNW 15 10 Clear CLR 50 31     48%     30.14        
Jan 23 10:15 NW 17 10 Clear CLR 50 31     49% 44   30.14        
Jan 23 09:55 WNW 17 10 Clear CLR 50 32     49% 44   30.13        
Jan 23 09:35   10 Clear CLR 49 31     50%     30.12        
Jan 23 09:15 WNW 10 10 Clear CLR 49 33     54% 45   30.11        
Jan 23 08:55 WNW 10 10 Clear CLR 48 32     54% 43   30.1        
Jan 23 08:35 WNW 11 10 Clear CLR 47 32     56% 42   30.09        
Jan 23 08:15 WNW 14 10 Clear CLR 46 32     59% 39   30.08        
Jan 23 07:55 W 7 10 Clear CLR 44 32     63% 40   30.07        
Jan 23 07:35 W 6 10 Clear CLR 42 31     66% 38   30.07        
Jan 23 07:15 W 6 10 Clear CLR 40 31     68% 36   30.06        
Jan 23 06:55 W 3 10 Clear CLR 40 30     68% 38   30.05        
Jan 23 06:35 W 5 10 Clear CLR 41 30     64% 38   30.05        
Jan 23 05:55 W 6 10 Clear CLR 43 30     60% 39   30.03        
Jan 23 05:35 W 7 10 Clear CLR 43 30     60% 39   30.02        
Jan 23 05:15 W 6 10 Clear CLR 43 30     61% 39   30.02        
Jan 23 04:55 W 5 10 Clear CLR 43 31     62% 40   30.02        
Jan 23 04:35 W 6 10 Clear CLR 43 31     61% 40   30.01        
Jan 23 04:15 WNW 7 10 Clear CLR 44 31     60% 40   30        
Jan 23 03:55 WNW 7 10 Clear CLR 44 31     61% 40   30        
Jan 23 03:35 W 7 10 Clear CLR 45 31     59% 41   30        
Jan 23 03:15 WNW 7 10 Clear CLR 45 32     59% 41   29.99        
Jan 23 02:55 WNW 8 10 Clear CLR 46 32     57% 42   29.99        
Jan 23 02:35 WNW 8 10 Clear CLR 46 32     57% 42   29.99        
Jan 23 02:15 WNW 9 10 Clear CLR 47 32     57% 42   29.99        
Jan 23 01:55 WNW 8 10 Clear CLR 47 32     55% 43   29.99        
Jan 23 01:35 WNW 9 10 Clear CLR 47 32     56% 43   29.99        
Jan 23 01:15 WNW 10 10 Clear CLR 48 33     55% 43   29.98        
Jan 23 00:55 WNW 9 10 Clear CLR 49 33     54% 45   29.98        
Jan 23 00:35 WNW 9 10 Clear CLR 50 33     52% 46   29.98        
Jan 23 00:15 W 8 10 Clear CLR 50 34     54% 47   29.97        
Jan 22 23:55 W 8 10 Clear CLR 51 35     54%     29.97        
Jan 22 23:35 W 8 10 Clear CLR 52 36     55%     29.96        
Jan 22 23:15 W 9 10 Clear CLR 53 40     63%     29.96        
Jan 22 22:55 W 14 10 Clear CLR 53 43     68%     29.96        
Jan 22 22:35 W 15 10 Clear CLR 54 45     72%     29.96        
Jan 22 22:15 W 11 10 Clear CLR 56 55     98%     29.95        
Jan 22 21:55 W 6 10 Partly Cloudy SCT002 57 57     100%     29.94        
Jan 22 21:35 WSW 3 0.5 Fog OVC002 58 58     100%     29.93        
Jan 22 21:15 WSW 3 0.25 Fog OVC002 60 60     100%     29.93        
Jan 22 20:55 WSW 5 3 Fog/Mist BKN002 60 60     100%     29.92        
Notice The following observation data may not be complete
Jan 22 20:35   7 Partly Cloudy SCT002          %              
Jan 22 20:15 SSW 6 2.5 Fog/Mist SCT002 59 59     100%     29.91        
Jan 22 19:55 S 6 7 Clear CLR 59 59     100%     29.91        
Jan 22 19:35 SSW 7 4 Fog/Mist CLR 59 59     100%     29.91        
Jan 22 19:15 S 3 1 Fog/Mist VV007 59 59     100%     29.91        
Jan 22 18:55 SSE 3 0.75 Fog/Mist VV005 60 60     100%     29.9        
Jan 22 18:35 Calm 1.25 Fog/Mist SCT070 60 60     100%     29.89        
Jan 22 18:15 Calm 10 Mostly Cloudy BKN060 61 61     100%     29.89        
Jan 22 17:55 S 6 10 Cloudy OVC060 61 61     100%     29.88       0
Jan 22 17:35 S 7 10 Mostly Cloudy BKN060 62 62     99%     29.87        
Jan 22 17:15 S 7 10 Clear CLR 62 61     99%     29.86        
Jan 22 16:55 S 6 10 Clear CLR 64 62     91%     29.86        
Jan 22 16:35 SSW 5 10 Partly Cloudy SCT045 65 62     90%     29.86        
Jan 22 16:15 Calm 10 Cloudy SCT037 OVC045 65 63     92%     29.86        
Jan 22 15:55 Calm 10 Cloudy OVC037 65 63     92%     29.86        
Jan 22 15:35 WSW 3 10 Cloudy SCT012 BKN039 OVC045 65 63     92%     29.86        
Jan 22 15:15 SSW 5 10 Cloudy BKN012 OVC046 65 63     92%     29.85        
Jan 22 14:55 WSW 5 10 Cloudy BKN010 BKN016 OVC060 66 63     90%     29.85     0  
Jan 22 14:35 SSW 5 10 Mostly Cloudy BKN010 65 63     92%     29.85        
Jan 22 14:15 SSW 6 10 Cloudy OVC008 65 63     94%     29.83        
Jan 22 13:15 S 7 10 Light Drizzle SCT008 BKN019 OVC085 62 62     100%     29.86        
Jan 22 12:55 SSE 6 7 Light Rain SCT012 BKN027 OVC085 60 60     100%     29.86   0    
Jan 22 12:35 SSE 8 7 Rain BKN012 OVC029 60 60     100%     29.86   0    
Jan 22 12:15 SE 14 2.5 Heavy Rain BKN012 BKN027 OVC038 59 59     99%     29.87   0    
Jan 22 11:55 SSE 5 10 Light Rain OVC012 60 57     90%     29.92        
Jan 22 11:35 SE 3 10 Cloudy OVC012 60 57     88%     29.94        
Jan 22 11:15 SSE 7 10 Cloudy OVC012 60 56     88%     29.94        
Jan 22 10:55 SSE 7 10 Cloudy OVC012 60 56     88%     29.95        
Jan 22 10:35 SSE 7 10 Cloudy OVC010 59 56     89%     29.96        
Jan 22 10:15 SE 7 10 Cloudy OVC010 59 56     89%     29.97        
Jan 22 09:55 SE 7 10 Cloudy OVC010 58 55     88%     29.98        
Jan 22 09:35 SE 6 10 Cloudy OVC012 57 53     87%     29.99        
Jan 22 09:15 SE 6 10 Cloudy OVC012 56 52     85%     30        
Jan 22 08:55 SE 5 10 Cloudy OVC012 56 51     84%     30        
Jan 22 08:35 SE 6 10 Cloudy OVC012 56 51     85%     30        
Jan 22 08:15 SE 6 10 Cloudy OVC014 55 50     85%     29.99        
Jan 22 07:55 SE 6 10 Cloudy OVC014 54 50     84%     30.01        
Jan 22 07:35 SE 6 10 Cloudy OVC014 54 49     84%     30        
Jan 22 07:15 SE 7 10 Cloudy BKN014 BKN019 OVC031 53 48     82%     30        
Jan 22 06:55 SE 7 10 Cloudy SCT014 SCT019 OVC031 53 47     80%     30        
Jan 22 06:35 SE 9 10 Cloudy OVC027 52 46     80%     29.98        
Jan 22 06:15 ESE 6 10 Cloudy OVC027 51 45     78%     30.01        
Jan 22 05:55 E 6 10 Cloudy SCT016 OVC025 51 45     79%     30.01        
Jan 22 05:35 E 5 10 Cloudy OVC018 50 44     79% 48   30.03        
Jan 22 05:15 Calm 10 Cloudy BKN020 OVC025 49 44     82%     30.02        
Jan 22 04:55 Calm 10 Partly Cloudy SCT025 49 43     81%     30.01        
Jan 22 04:35 Calm 10 Clear CLR 50 43     78%     30.01        
Jan 22 04:15 Calm 10 Clear CLR 50 43     78%     30        
Jan 22 03:55 SE 3 10 Clear CLR 49 43     81% 48   30.01        
Jan 22 03:35 ESE 3 10 Clear CLR 51 43     74%     30        
Jan 22 03:15 ESE 6 10 Clear CLR 51 42     74%     30.01        
Jan 22 02:55 E 6 10 Clear CLR 50 42     74%     30.02        
Jan 22 02:35 Calm 7 Clear CLR 51 42     73%     30.04        
Jan 22 02:15 ESE 5 10 Clear CLR 50 43     76% 48   30.03        
Jan 22 01:55 Calm 10 Clear CLR 52 43     71%     30.04        
Jan 22 01:35 SE 5 10 Clear CLR 51 43     74%     30.04        
Jan 22 01:15 SE 5 10 Clear CLR 52 43     71%     30.05        
Jan 22 00:55 SE 3 10 Clear CLR 53 44     71%     30.05        
Jan 22 00:35 Calm 10 Clear CLR 52 44     72%     30.05        
Jan 22 00:15 SSE 3 10 Clear CLR 54 44     68%     30.06        
Jan 21 23:55 SE 5 10 Clear CLR 55 44     67%     30.05        
Jan 21 23:35 SSE 7 10 Clear CLR 54 44     69%     30.07        
Jan 21 23:15 SSE 7 10 Clear CLR 54 45     69%     30.07        
Jan 21 22:55 SE 7 10 Clear CLR 55 45     67%     30.08        
Jan 21 22:35 SE 6 10 Clear CLR 56 45     67%     30.09        
Jan 21 22:15 SE 5 10 Clear CLR 56 45     67%     30.1        
Jan 21 21:55 SSE 5 10 Clear CLR 56 45     65%     30.1        
Jan 21 21:35 SE 3 10 Clear CLR 57 45     64%     30.1        
Jan 21 21:15 SSE 5 10 Clear CLR 58 45     63%     30.1        
Jan 21 20:55 SE 3 10 Clear CLR 58 45     62%     30.1        
Jan 21 20:35 SSE 5 10 Clear CLR 58 45     61%     30.09        
Jan 21 20:15 SSE 5 10 Clear CLR 58 45     62%     30.1        
Jan 21 19:55 SSE 5 10 Clear CLR 58 45     64%     30.1        
Jan 21 19:35 SE 3 10 Clear CLR 59 45     60%     30.09        
Jan 21 19:15 S 7 10 Clear CLR 56 46     68%     30.1        
Jan 21 18:55 Calm 10 Clear CLR 59 45     60%     30.12        
Jan 21 18:35 S 6 10 Clear CLR 59 45     61%     30.11        
Jan 21 18:15 S 6 10 Clear CLR 61 45     56%     30.11        
Jan 21 17:55 S 7 10 Clear CLR 63 45     54%     30.11        
Jan 21 17:35 S 7 10 Clear CLR 64 45     50%     30.11        
Jan 21 17:15 S 8 10 Clear CLR 66 46     48%     30.11        
Jan 21 16:55 SE 6 10 Clear CLR 67 46     48%     30.11        
Jan 21 16:35 S 9 10 Clear CLR 68 46     45%     30.11        
Jan 21 16:15 S 8 10 Clear CLR 69 46     44%     30.11        
Jan 21 15:55 S 10 10 Clear CLR 70 46     42%   69 30.11        
Jan 21 15:35 SE 8 10 Clear CLR 70 46     42%   69 30.11        
Jan 21 15:15 SE 9 10 Clear CLR 70 45     41%   69 30.11        
Jan 21 14:55 SSE 9 10 Clear CLR 70 46     41%   69 30.11        
Jan 21 14:35 SSW 7 10 Clear CLR 71 45     40%   69 30.12        
Jan 21 14:15 SE 7 10 Clear CLR 69 45     42%     30.12        
Jan 21 13:55 SE 7 10 Clear CLR 69 46     43%     30.13        
Jan 21 13:35 SSE 8 10 Clear CLR 69 46     44%     30.14        
Jan 21 13:15 SSE 7 10 Clear CLR 68 46     46%     30.14        
Jan 21 12:55 SSE 7 10 Clear CLR 67 47     48%     30.15        
Jan 21 12:35 S 5 10 Clear CLR 66 46     49%     30.16        
Jan 21 12:15 SE 3 10 Clear CLR 65 46     51%     30.18        
Jan 21 11:55 SSE 6 10 Clear CLR 63 46     53%     30.2        
Jan 21 11:35 SSE 10 10 Clear CLR 63 46     55%     30.21        
Jan 21 11:15 SSE 7 10 Clear CLR 62 46     56%     30.22        
Jan 21 10:55 SE 6 10 Clear CLR 60 46     59%     30.23        
Jan 21 10:35 SE 5 10 Clear CLR 59 45     61%     30.25        
Jan 21 10:15 SE 6 10 Clear CLR 58 45     64%     30.26        
Jan 21 09:55 SSE 6 10 Clear CLR 56 45     68%     30.26        
Jan 21 09:35 SE 6 10 Clear CLR 54 45     71%     30.26        
Jan 21 09:15 S 11 10 Clear CLR 51 43     74%     30.26        
Jan 21 08:55 S 8 10 Clear CLR 49 42     77% 46   30.25        
Jan 21 08:35 SSE 5 10 Clear CLR 47 41     80% 45   30.25        
Jan 21 08:15 SSE 3 10 Clear CLR 45 40     85% 43   30.24        
Jan 21 07:55 Calm 10 Clear CLR 41 39     93%     30.23        
Jan 21 07:35 Calm 10 Clear CLR 36 36     97%     30.23        
Jan 21 07:15 Calm 10 Clear CLR 34 34     99%     30.23        
Jan 21 06:55 Calm 10 Clear CLR 36 36     100%     30.23        
Jan 21 06:35 Calm 10 Clear CLR 35 35     100%     30.22        
Jan 21 06:15 Calm 10 Clear CLR 34 34     99%     30.22        
Jan 21 05:55 Calm 10 Clear CLR 36 35     98%     30.22        
Jan 21 05:35 Calm 10 Clear CLR 37 36     97%     30.21        
Jan 21 05:15 Calm 10 Clear CLR 37 37     97%     30.21        
Jan 21 04:55 Calm 10 Clear CLR 37 36     97%     30.2        
Jan 21 04:35 SSE 7 10 Clear CLR 35 34     99% 29   30.2        
Jan 21 04:15 Calm 10 Clear CLR 36 35     99%     30.21        
Jan 21 03:55 SSE 3 10 Clear CLR 35 35     98% 33   30.21        
Notice The following observation data may not be complete
Jan 21 03:35   10 Clear CLR          %              
Jan 21 03:15 Calm 10 Clear CLR 37 36     96%     30.21        
Jan 21 02:55 Calm 10 Clear CLR 40 38     93%     30.21        
Jan 21 02:35 Calm 10 Clear CLR 37 36     99%     30.2        
Jan 21 02:15 Calm 10 Clear CLR 36 36     98%     30.2        
Jan 21 01:55 S 6 10 Clear CLR 38 37     96% 34   30.21        
Jan 21 01:35 Calm 10 Clear CLR 39 38     95%     30.22        
Jan 21 01:15 NW 5 10 Clear CLR 38 38     97% 35   30.22        
Jan 21 00:55 Calm 10 Clear CLR 40 38     93%     30.21        
Jan 21 00:35 W 8 7 Clear CLR 41 38     91% 35   30.21        
Jan 21 00:15 SSE 5 10 Clear CLR 40 38     89% 37   30.2        
Jan 20 23:55 E 6 10 Clear CLR 39 37     93% 35   30.21        
Jan 20 23:35 SSW 7 10 Clear CLR 40 38     93% 35   30.22        
Jan 20 23:15 S 6 10 Clear CLR 43 40     88% 39   30.22        
Jan 20 22:55 Calm 10 Clear CLR 42 38     87%     30.22        
Jan 20 22:35 SSW 8 10 Clear CLR 42 38     89% 36   30.23        
Jan 20 22:15 SSW 11 10 Clear CLR 45 40     82% 39   30.23        
Jan 20 21:55 S 9 10 Clear CLR 46 40     80% 41   30.23        
Jan 20 21:35 Calm 10 Clear CLR 45 40     80%     30.24        
Jan 20 21:15 Calm 3 Haze CLR 46 40     80%     30.24        
Jan 20 20:55 Calm 10 Clear CLR 47 40     76%     30.24        
Jan 20 20:35 SSE 5 10 Clear CLR 47 41     79% 45   30.24        
Jan 20 20:15 Calm 10 Clear CLR 50 40     69%     30.24        
Jan 20 19:55 Calm 10 Clear CLR 50 40     70%     30.23        
Jan 20 19:35 SSE 3 10 Clear CLR 53 40     63%     30.24        
Jan 20 19:15 SSE 3 10 Clear CLR 53 40     62%     30.23        
Jan 20 18:55 SSE 5 10 Mostly Cloudy BKN065 53 41     64%     30.24        
Jan 20 18:35 Calm 10 Cloudy OVC065 54 40     60%     30.24        
Jan 20 18:15 SSE 3 10 Mostly Cloudy BKN065 53 41     63%     30.23        
Jan 20 17:55 Calm 10 Clear CLR 56 40     57%     30.23        
Notice The following observation data may not be complete
Jan 20 17:35   10 Clear CLR          %              
Jan 20 17:15 SSW 3 10 Clear CLR 58 40     51%     30.22        
Jan 20 16:55 SSW 10 10 Clear CLR 60 40     48%     30.22        
Jan 20 16:35 SSW 9 10 Clear CLR 62 40     45%     30.22        
Jan 20 16:15 S 7 10 Clear CLR 63 40     43%     30.22        
Jan 20 15:55 S 9 10 Clear CLR 64 40     41%     30.21        
Jan 20 15:35 S 8 10 Clear CLR 64 41     43%     30.21        
Jun 11 22:55   10 Clear CLR 73 73     100%   75 30.11        
Notice The following observation data may not be complete
Jun 11 18:15   7 Light Rain SCT046 SCT065 OVC110          %         0    
Notice The following observation data may not be complete
Jun 11 17:35   10 Light Rain SCT027 SCT032 OVC048   72      %     30.07        
Jun 11 16:55 ESE 7 10 Mostly Cloudy BKN048 BKN055 89 71     55%   94 30.04        
Jun 11 15:15 E 7 10 Partly Cloudy SCT050 88 69     52%   93 30.07        
Notice The following observation data may not be complete
Jun 11 14:35   10 Mostly Cloudy BKN050          %              
Jun 11 10:15 SSE 10 10 Clear CLR 82 67     60%   85 30.13        
Jun 10 10:15 SSE 3 10 Clear CLR 80 67     64%   83 30.06        
Jun 10 08:55   0.25 Cloudy OVC080 76 68     76%   77 30.06        
Jun 10 08:35 Calm 0.25 Cloudy OVC080 74 68     81%   75 30.05        
Jun 10 03:55 Calm 10 Partly Cloudy SCT075 64 64     100%     29.98        
Jun 10 02:35 Calm 10 Cloudy SCT065 OVC075 64 64     100%     29.98        
Jun 10 01:55 S 7 10 Cloudy OVC075 65 64     97%     29.98        
Notice The following observation data may not be complete
Jun 09 23:35   10 Clear CLR          %              
Notice The following observation data may not be complete
Jun 09 20:35   10 Clear CLR          %              
Jun 09 16:15 Calm 10 Clear CLR 82 57     43%   82 29.92        
Jun 09 11:35   10 Clear CLR 79 60     51%   79 29.98        
Jun 09 03:35 Calm 10 Clear CLR 60 59     97%     29.89        
Jun 09 02:55 WNW 3 10 Clear   60 60     99%     29.9        
Jun 09 02:35 Calm 10 Clear CLR 61 60     97%     29.9        
Jun 09 00:15 NNW 6 10 Clear CLR 65 60     83%     29.91        
Jun 08 23:55 NNW 3 10 Clear CLR 65 60     85%     29.91        
Jun 08 16:50 NW 6 10 Clear CLR 80 57     45%   80 29.86        
Jun 08 13:30 WNW 11 10 Partly Cloudy SCT050 79 59     50%   79 29.9        
Jun 08 07:55 N 3 10 Clear   67 58     71%     29.92        
Jun 08 03:15 N 6 10 Clear CLR 64 55     73%     29.84        
Jun 07 17:50   10 Clear CLR 82 59     47%   82 29.79        
Jun 07 08:15 N 7 10 Clear CLR 71 64     78%   72 29.79        
Jun 06 14:55 NE 3 10 Rain SCT005 BKN047 OVC070 70 70     99%   72 29.72   1    
Jun 06 09:15   10 Cloudy OVC005 75 73     94%   76 29.77        
Jun 05 19:35 SSE 5 10 Light Rain SCT050 SCT065 BKN095 70 70     99%     29.77   0